Погода в Островском

Россия / Нижегородская область     55°52′50″N   45°08′37″E
темп.,
°C
ветер,
м/с
пор.,
м/с
влажн.,
%
обл.,
%
осадки,
мм/ч
давл.,
гПа
погр.,
м
6 марта, сб
сб600:00−8зсз499582 0.3 1010305
03:00−14зсз499273 0.3 1013168
06:00−18зсз34940 0.0 101451
09:00−14з35920 0.0 1015156
12:00−10з368815 0.0 1015420
15:00−8з468841 0.1 1013735
18:00−11з2394100 0.1 101331
21:00−14зюз129892 0.1 101320
7 марта, вс
вс700:00−14зюз229783 0.1 101220
03:00−16юз239878 0.1 101120
06:00−17ююз339742 0.0 101025
09:00−13ююз599235 0.0 1008244
12:00−9ю71288100 0.0 1004506
15:00−6ююз81491100 0.3 1000910
18:00−6ю81492100 0.5 996779
21:00−5ю81494100 1.1 993803
8 марта, пн
пн800:00−7зюз61487100 0.6 992723
03:00−9зюз7158790 0.8 993438
06:00−11юз6138932 0.0 994366
09:00−10юз6119366 0.4 994392
12:00−7юз5891100 0.2 994498
15:00−6юз3493100 0.6 993417
18:00−8зсз3496100 0.3 99496
21:00−11з51095100 0.3 997241
9 марта, вт
вт900:00−10зсз61194100 0.1 999412
03:00−12зсз61194100 0.3 1002401
06:00−14зсз5109599 0.1 1005339
09:00−14зсз5893100 0.1 1008469
12:00−13зсз5791100 0.1 1010595
15:00−12зсз5890100 0.2 1011632
18:00−15зсз4993100 0.1 1012361
21:00−18зсз489797 0.1 1014175
10 марта, ср
ср1000:00−20зсз3610095 0.1 1015113
03:00−23зсз4510095 0.1 101775
06:00−25сз35100100 0.0 101887
09:00−23сз3598100 0.1 1020206
12:00−18сз359193 0.0 1020457
15:00−16ссз358896 0.1 1021678
18:00−20ссз3396100 0.1 102137
21:00−23ссз33100100 0.1 102327